Regional Weather Roundup
Issued by NWS

Home | Current Version | Previous Version | Text Only | Print | Product List | Glossary On
Versions: 1 2 3 4 5 6 7 8 9 10 11 12 13 14 15 16 17 18 19 20 21 22 23 24 25 26 27 28 29 30 31 32 33 34 35 36 37 38 39 40 41 42 43 44 45 46 47 48 49 50
000
ASUS46 KPQR 031710
RWROR

OREGON REGIONAL WEATHER ROUNDUP
NATIONAL WEATHER SERVICE PORTLAND OR
1000 AM PDT WED JUN 03 2015

NOTE: "FAIR" INDICATES FEW OR NO CLOUDS BELOW 12,000 FEET WITH
NO SIGNIFICANT WEATHER AND/OR OBSTRUCTIONS TO VISIBILITY.

ORZ001>013-031800-
NORTHWEST OREGON


CITY           SKY/WX    TMP DP  RH WIND       PRES   REMARKS
ASTORIA        LGT RAIN  57  52  83 W5        30.09S
NEWPORT        CLOUDY    54  54 100 W6        30.14S
PORTLAND       CLOUDY    58  53  84 VRB3      30.09S
VANCOUVER WA   CLOUDY    58  52  80 CALM      30.09S
SCAPPOOSE      CLOUDY    59  52  77 CALM      30.08S
HILLSBORO      CLOUDY    57  52  83 NW5       30.09S
AURORA         CLOUDY    59  51  75 CALM      30.10S
MCMINNVILLE    CLOUDY    59  52  77 W3        30.10S
SALEM          PTSUNNY   60  50  69 CALM      30.08S
CORVALLIS      MOSUNNY   63  50  63 SW5       30.10F
EUGENE         PTSUNNY   60  50  69 W3        30.09F
$$

ORZ021-028-031800-
SOUTHWEST OREGON


CITY           SKY/WX    TMP DP  RH WIND       PRES   REMARKS
NORTH BEND     CLOUDY    61  54  77 N5        30.11F
BROOKINGS      SUNNY     60  57  89 SW3       30.04F
ROSEBURG       CLOUDY    59  49  69 CALM      30.09F
SEXTON SUMMIT  FOG       45  45 100 CALM      30.07R VSB<1/4
MEDFORD        CLOUDY    59  49  69 NW5       30.05F
$$

ORZ014>016-041-031800-
COLUMBIA GORGE


CITY           SKY/WX    TMP DP  RH WIND       PRES   REMARKS
TROUTDALE      LGT RAIN  57  52  83 CALM      30.08S
THE DALLES     SUNNY     67  47  48 NW13G21   30.02F
$$

ORZ029>031-041-044-049-050-061>064-502-503-505>511-031800-
EASTERN OREGON


CITY           SKY/WX    TMP DP  RH WIND       PRES   REMARKS
REDMOND        PTSUNNY   53  41  63 VRB3      30.04F
BEND           CLOUDY   N/A N/A N/A MISG        N/A
PRINEVILLE     CLOUDY    54  43  66 NW6       30.04F
KLAMATH FALLS  SUNNY     57  37  47 CALM      30.03F
LAKEVIEW       MOSUNNY   57  39  51 W3        30.04F
HERMISTON      MOSUNNY   66  44  45 W14       29.99F
PENDLETON      PTSUNNY   63  43  48 W12       30.01F
JOHN DAY       MOSUNNY   56  44  63 W5        30.04F
MEACHAM        CLOUDY    53  40  61 VRB3      30.04F
LA GRANDE      MOSUNNY   59  39  47 NW5       30.01F
BAKER CITY     CLOUDY    57  45  64 W7        30.02F
BURNS          SUNNY     56  37  49 VRB6      30.03F
ROME             N/A     62  41  46 CALM      29.99F
ONTARIO        MOSUNNY   64  48  56 N5        29.99F
$$



USA.gov is the U.S. government's official web portal to all federal, state and local government web resources and services.